When you browse on this site, cookies collect data to enhance your experience and personalize the content and advertising you see.
Visit our Privacy Policy to learn more. By continuing to use the site, you agree to this use of cookies and data.
  • En España
  • Lista de países
  • Para 7 días
  • Temperatura del agua
  • Mapa Satelital
  • El tiempo en el mapa
  • Informadores
  • user-avatar
    Iniciar sesión

    Tiempo cada hora Kruhlyk

    Hoy, 19 Marzo, Martes

    Tiempo Temperatura Precipitaciones Viento Presión Humedad
    00:00 +4°C° 0 mm 6 mps 751 mmHg 68%
    01:00 +4°C° 0 mm 6 mps 751 mmHg 71%
    02:00 +3°C° 0 mm 4 mps 751 mmHg 81%
    03:00 +3°C° 0 mm 4 mps 751 mmHg 81%
    04:00 +3°C° 0 mm 4 mps 752 mmHg 82%
    05:00 +2°C° 0 mm 5 mps 752 mmHg 82%
    06:00 +2°C° 0 mm 5 mps 752 mmHg 79%
    07:00 +3°C° 0 mm 5 mps 752 mmHg 75%
    08:00 +3°C° 0 mm 6 mps 753 mmHg 72%
    09:00 +5°C° 0 mm 6 mps 753 mmHg 66%
    10:00 +7°C° 0 mm 6 mps 753 mmHg 61%
    11:00 +9°C° 0 mm 6 mps 753 mmHg 56%
    12:00 +10°C° 0 mm 6 mps 753 mmHg 53%
    13:00 +10°C° 0 mm 6 mps 753 mmHg 50%
    14:00 +13°C° 0 mm 4 mps 753 mmHg 46%
    15:00 +12°C° 0 mm 4 mps 753 mmHg 48%
    16:00 +12°C° 0 mm 3 mps 753 mmHg 51%
    17:00 +12°C° 0 mm 2 mps 753 mmHg 53%
    18:00 +10°C° 0 mm 2 mps 753 mmHg 58%
    19:00 +9°C° 0 mm 2 mps 753 mmHg 62%
    20:00 +8°C° 0 mm 2 mps 753 mmHg 67%
    21:00 +9°C° 0 mm 1 mps 753 mmHg 69%
    22:00 +9°C° 0 mm 1 mps 754 mmHg 71%
    23:00 +9°C° 0 mm 1 mps 754 mmHg 73%

    Mañana, 20 Marzo, Miércoles

    Tiempo Temperatura Precipitaciones Viento Presión Humedad
    00:00 +8°C° 0 mm 1 mps 754 mmHg 75%
    01:00 +8°C° 0 mm 1 mps 754 mmHg 77%
    02:00 +8°C° 0 mm 1 mps 754 mmHg 79%
    03:00 +8°C° 0 mm 1 mps 754 mmHg 81%
    04:00 +7°C° 0 mm 1 mps 754 mmHg 83%
    05:00 +7°C° 0 mm 1 mps 754 mmHg 85%
    06:00 +6°C° 0.1 mm 2 mps 754 mmHg 86%
    07:00 +6°C° 0.1 mm 2 mps 754 mmHg 86%
    08:00 +5°C° 0.1 mm 3 mps 755 mmHg 87%
    09:00 +5°C° 0.4 mm 3 mps 755 mmHg 85%
    10:00 +5°C° 0.4 mm 4 mps 755 mmHg 83%
    11:00 +5°C° 0.4 mm 4 mps 755 mmHg 81%
    12:00 +5°C° 0.3 mm 4 mps 755 mmHg 76%
    13:00 +6°C° 0.3 mm 4 mps 755 mmHg 71%
    14:00 +6°C° 0.3 mm 4 mps 755 mmHg 66%
    15:00 +7°C° 0 mm 3 mps 756 mmHg 66%
    16:00 +7°C° 0 mm 3 mps 756 mmHg 65%
    17:00 +7°C° 0 mm 2 mps 756 mmHg 65%
    18:00 +6°C° 0 mm 2 mps 756 mmHg 67%
    19:00 +5°C° 0 mm 2 mps 756 mmHg 70%
    20:00 +3°C° 0 mm 3 mps 757 mmHg 72%
    21:00 +4°C° 0 mm 2 mps 757 mmHg 72%
    22:00 +3°C° 0 mm 2 mps 757 mmHg 72%
    23:00 +2°C° 0 mm 2 mps 757 mmHg 72%

    Pasado mañana, 21 Marzo, Jueves

    Tiempo Temperatura Precipitaciones Viento Presión Humedad
    00:00 +2°C° 0 mm 2 mps 757 mmHg 74%
    01:00 +1°C° 0 mm 2 mps 757 mmHg 77%
    02:00 +1°C° 0 mm 2 mps 757 mmHg 80%
    03:00 +1°C° 0 mm 2 mps 757 mmHg 82%
    04:00 -1°C° 0 mm 2 mps 757 mmHg 84%
    05:00 -1°C° 0 mm 2 mps 757 mmHg 86%
    06:00 0°C° 0 mm 3 mps 757 mmHg 80%
    07:00 +1°C° 0 mm 3 mps 757 mmHg 75%
    08:00 +2°C° 0 mm 3 mps 757 mmHg 69%
    09:00 +3°C° 0 mm 4 mps 757 mmHg 64%
    10:00 +3°C° 0 mm 5 mps 756 mmHg 59%
    11:00 +5°C° 0 mm 6 mps 756 mmHg 54%
    12:00 +5°C° 0 mm 6 mps 756 mmHg 55%
    13:00 +5°C° 0 mm 6 mps 755 mmHg 55%
    14:00 +5°C° 0 mm 7 mps 755 mmHg 55%
    15:00 +5°C° 0 mm 6 mps 755 mmHg 59%
    16:00 +6°C° 0 mm 5 mps 755 mmHg 62%
    17:00 +6°C° 0 mm 5 mps 755 mmHg 65%
    18:00 +5°C° 0 mm 4 mps 755 mmHg 70%
    19:00 +4°C° 0 mm 4 mps 755 mmHg 75%
    20:00 +3°C° 0 mm 3 mps 755 mmHg 80%
    21:00 +2°C° 0 mm 3 mps 755 mmHg 81%
    22:00 +2°C° 0 mm 3 mps 756 mmHg 83%
    23:00 +2°C° 0 mm 3 mps 756 mmHg 84%

    22 Marzo, Viernes

    Tiempo Temperatura Precipitaciones Viento Presión Humedad
    00:00 +1°C° 0 mm 3 mps 755 mmHg 85%
    01:00 +1°C° 0 mm 3 mps 755 mmHg 87%
    02:00 +1°C° 0 mm 3 mps 755 mmHg 88%
    03:00 +1°C° 0 mm 3 mps 755 mmHg 88%
    04:00 +1°C° 0 mm 3 mps 755 mmHg 89%
    05:00 +1°C° 0 mm 3 mps 754 mmHg 89%
    06:00 +2°C° 0.1 mm 3 mps 754 mmHg 89%
    07:00 +2°C° 0.1 mm 3 mps 754 mmHg 89%
    08:00 +3°C° 0.1 mm 4 mps 754 mmHg 88%
    09:00 +4°C° 0 mm 4 mps 754 mmHg 87%
    10:00 +3°C° 0 mm 5 mps 753 mmHg 87%
    11:00 +5°C° 0 mm 5 mps 753 mmHg 86%
    12:00 +5°C° 0 mm 5 mps 753 mmHg 86%
    13:00 +6°C° 0 mm 5 mps 752 mmHg 86%
    14:00 +5°C° 0 mm 6 mps 752 mmHg 86%
    15:00 +7°C° 0 mm 5 mps 752 mmHg 86%
    16:00 +7°C° 0 mm 5 mps 752 mmHg 87%
    17:00 +7°C° 0 mm 5 mps 751 mmHg 88%
    18:00 +7°C° 0 mm 5 mps 751 mmHg 88%
    19:00 +7°C° 0 mm 5 mps 751 mmHg 88%
    20:00 +5°C° 0 mm 6 mps 752 mmHg 87%
    21:00 +6°C° 0 mm 5 mps 752 mmHg 86%
    22:00 +5°C° 0 mm 5 mps 752 mmHg 85%
    23:00 +5°C° 0 mm 5 mps 752 mmHg 84%

    23 Marzo, Sábado

    Tiempo Temperatura Precipitaciones Viento Presión Humedad
    00:00 +3°C° 0 mm 5 mps 752 mmHg 82%
    01:00 +3°C° 0 mm 4 mps 752 mmHg 80%
    02:00 +3°C° 0 mm 4 mps 752 mmHg 78%
    03:00 +1°C° 0 mm 4 mps 753 mmHg 76%
    04:00 0°C° 0 mm 4 mps 753 mmHg 75%
    05:00 -1°C° 0 mm 4 mps 753 mmHg 74%
    06:00 0°C° 0 mm 4 mps 753 mmHg 70%
    07:00 0°C° 0 mm 5 mps 754 mmHg 67%
    08:00 +1°C° 0 mm 5 mps 754 mmHg 64%
    09:00 +2°C° 0 mm 5 mps 754 mmHg 60%
    10:00 +3°C° 0 mm 5 mps 754 mmHg 57%
    11:00 +5°C° 0 mm 5 mps 754 mmHg 54%
    12:00 +6°C° 0 mm 5 mps 754 mmHg 52%
    13:00 +7°C° 0 mm 5 mps 754 mmHg 50%
    14:00 +7°C° 0 mm 4 mps 754 mmHg 48%
    15:00 +7°C° 0 mm 4 mps 754 mmHg 50%
    16:00 +8°C° 0 mm 3 mps 754 mmHg 51%
    17:00 +8°C° 0 mm 3 mps 754 mmHg 53%
    18:00 +7°C° 0 mm 2 mps 754 mmHg 56%
    19:00 +6°C° 0 mm 2 mps 754 mmHg 60%
    20:00 +5°C° 0 mm 2 mps 754 mmHg 64%
    21:00 +5°C° 0 mm 2 mps 754 mmHg 64%
    22:00 +5°C° 0 mm 2 mps 754 mmHg 64%
    23:00 +4°C° 0 mm 2 mps 754 mmHg 64%

    24 Marzo, Domingo

    Tiempo Temperatura Precipitaciones Viento Presión Humedad
    00:00 +5°C° 0 mm 2 mps 753 mmHg 65%
    01:00 +5°C° 0 mm 2 mps 753 mmHg 66%
    02:00 +4°C° 0 mm 3 mps 753 mmHg 66%
    03:00 +4°C° 0 mm 3 mps 753 mmHg 74%
    04:00 +4°C° 0 mm 3 mps 753 mmHg 82%
    05:00 +4°C° 0 mm 3 mps 753 mmHg 89%
    06:00 +5°C° 0 mm 3 mps 753 mmHg 89%
    07:00 +7°C° 0 mm 3 mps 753 mmHg 89%
    08:00 +6°C° 0 mm 4 mps 753 mmHg 88%
    09:00 +7°C° 0.1 mm 4 mps 753 mmHg 84%
    10:00 +10°C° 0.1 mm 4 mps 753 mmHg 81%
    11:00 +10°C° 0.1 mm 5 mps 753 mmHg 77%
    12:00 +10°C° 0.2 mm 5 mps 752 mmHg 78%
    13:00 +11°C° 0.2 mm 4 mps 752 mmHg 79%
    14:00 +11°C° 0.2 mm 4 mps 752 mmHg 79%
    15:00 +11°C° 0 mm 3 mps 752 mmHg 81%
    16:00 +10°C° 0 mm 2 mps 751 mmHg 82%
    17:00 +11°C° 0 mm 1 mps 751 mmHg 83%
    18:00 +10°C° 0 mm 1 mps 751 mmHg 86%
    19:00 +9°C° 0 mm 1 mps 751 mmHg 89%
    20:00 +8°C° 0 mm 1 mps 751 mmHg 92%
    21:00 +7°C° 0 mm 2 mps 751 mmHg 92%
    22:00 +7°C° 0 mm 2 mps 751 mmHg 93%
    23:00 +7°C° 0 mm 3 mps 750 mmHg 93%
    Mostrar más